AEA12BZ LECO-LEMD

Flight info

Callsign AEA12BZ
Flight time N/A
Altitude 29000
Route FORNO DCT DESAT/N0436F300 N733 ZMR
Aircraft B738/M-SDE2E3FGHIRWXY/LB1

Departure

Time 2026-05-08 20:22
Airport A Coruña Airport (LECO)

Arrival

Time N/A
Airport Adolfo Suárez Madrid–Barajas Airport (LEMD)
Time Latitude Longitude Altitude Speed Heading
2026-05-08 20:02 43.30246 -8.38007 274 ft 0 kts 301°
2026-05-08 20:16 43.30236 -8.37986 274 ft 4 kts 315°
2026-05-08 20:16 43.30215 -8.37968 276 ft 4 kts 358°
2026-05-08 20:16 43.30197 -8.37973 276 ft 0 kts 31°
2026-05-08 20:19 43.30197 -8.37972 275 ft 1 kts 31°
2026-05-08 20:19 43.30233 -8.37942 275 ft 12 kts 31°
2026-05-08 20:19 43.30256 -8.37830 275 ft 16 kts 121°
2026-05-08 20:19 43.30244 -8.37698 273 ft 16 kts 42°
2026-05-08 20:20 43.30335 -8.37621 272 ft 15 kts 31°
2026-05-08 20:20 43.30438 -8.37536 272 ft 22 kts 31°
2026-05-08 20:20 43.30594 -8.37407 274 ft 31 kts 30°
2026-05-08 20:20 43.30797 -8.37240 275 ft 34 kts 31°
2026-05-08 20:21 43.30972 -8.37150 277 ft 19 kts 59°
2026-05-08 20:21 43.30935 -8.37125 277 ft 0 kts 212°
2026-05-08 20:21 43.30935 -8.37126 277 ft 2 kts 212°
2026-05-08 20:21 43.30724 -8.37302 274 ft 72 kts 211°
2026-05-08 20:22 43.30096 -8.37814 272 ft 135 kts 211°
2026-05-08 20:22 43.29173 -8.38582 519 ft 162 kts 212°
2026-05-08 20:22 43.28208 -8.39402 1193 ft 166 kts 210°
2026-05-08 20:22 43.27499 -8.39837 1525 ft 177 kts 194°
2026-05-08 20:23 43.25713 -8.39671 1967 ft 206 kts 159°
2026-05-08 20:23 43.24479 -8.38648 2510 ft 212 kts 137°
2026-05-08 20:23 43.23591 -8.37018 3121 ft 216 kts 113°
2026-05-08 20:23 43.23265 -8.35018 3811 ft 218 kts 89°
2026-05-08 20:24 43.23478 -8.32957 4462 ft 220 kts 78°
2026-05-08 20:24 43.23768 -8.30869 5107 ft 224 kts 80°
2026-05-08 20:24 43.24030 -8.28756 5776 ft 226 kts 82°
2026-05-08 20:24 43.24271 -8.26621 6477 ft 227 kts 83°
2026-05-08 20:25 43.24501 -8.24476 7218 ft 227 kts 84°
2026-05-08 20:25 43.24727 -8.22325 7936 ft 229 kts 84°
2026-05-08 20:25 43.24916 -8.20138 8605 ft 232 kts 94°
2026-05-08 20:25 43.24506 -8.18032 9275 ft 230 kts 119°
2026-05-08 20:26 43.23644 -8.16088 9573 ft 251 kts 137°
2026-05-08 20:26 43.22184 -8.14607 9840 ft 273 kts 149°
2026-05-08 20:26 43.20521 -8.13179 10142 ft 295 kts 149°
2026-05-08 20:26 43.18707 -8.11633 10336 ft 319 kts 149°
2026-05-08 20:27 43.16766 -8.09963 10635 ft 337 kts 149°
2026-05-08 20:27 43.14764 -8.08218 11272 ft 344 kts 149°
2026-05-08 20:27 43.12747 -8.06441 12030 ft 346 kts 149°
2026-05-08 20:27 43.10720 -8.04643 12825 ft 348 kts 149°
2026-05-08 20:28 43.08679 -8.02827 13583 ft 352 kts 149°
2026-05-08 20:28 43.06618 -8.00989 14334 ft 355 kts 149°
2026-05-08 20:28 43.04540 -7.99134 15102 ft 358 kts 149°
2026-05-08 20:28 43.02441 -7.97259 15879 ft 360 kts 149°
2026-05-08 20:29 43.00334 -7.95379 16625 ft 363 kts 149°
2026-05-08 20:29 42.98205 -7.93481 17312 ft 367 kts 149°
2026-05-08 20:29 42.96079 -7.91586 17985 ft 370 kts 149°
2026-05-08 20:29 42.93910 -7.89654 18635 ft 374 kts 149°
2026-05-08 20:30 42.91716 -7.87704 19266 ft 378 kts 149°
2026-05-08 20:30 42.89470 -7.85708 19890 ft 382 kts 150°
2026-05-08 20:30 42.87260 -7.83745 20447 ft 386 kts 150°
2026-05-08 20:30 42.84995 -7.81735 21012 ft 390 kts 150°
2026-05-08 20:31 42.82709 -7.79709 21574 ft 394 kts 150°
2026-05-08 20:31 42.80402 -7.77665 22101 ft 397 kts 150°
2026-05-08 20:31 42.78073 -7.75605 22617 ft 401 kts 150°
2026-05-08 20:31 42.75724 -7.73528 23123 ft 404 kts 150°
2026-05-08 20:32 42.73356 -7.71436 23613 ft 408 kts 150°
2026-05-08 20:32 42.70963 -7.69324 24090 ft 411 kts 151°
2026-05-08 20:32 42.68525 -7.67174 24535 ft 414 kts 151°
2026-05-08 20:32 42.66101 -7.65038 25001 ft 416 kts 151°
2026-05-08 20:33 42.63692 -7.62917 25466 ft 418 kts 151°
2026-05-08 20:33 42.61244 -7.60765 25881 ft 421 kts 151°
2026-05-08 20:33 42.58776 -7.58597 26287 ft 424 kts 151°
2026-05-08 20:33 42.56301 -7.56423 26806 ft 423 kts 151°
2026-05-08 20:34 42.53833 -7.54257 27397 ft 420 kts 152°
2026-05-08 20:34 42.51386 -7.52111 27979 ft 418 kts 152°
2026-05-08 20:34 42.46617 -7.47639 28831 ft 422 kts 140°
2026-05-08 20:35 42.44843 -7.44440 28883 ft 428 kts 128°
2026-05-08 20:35 42.41583 -7.37647 28902 ft 433 kts 128°
2026-05-08 20:36 42.38249 -7.30863 28886 ft 432 kts 129°
2026-05-08 20:36 42.34905 -7.24133 28882 ft 431 kts 129°
2026-05-08 20:37 42.31561 -7.17433 28882 ft 430 kts 129°
2026-05-08 20:37 42.28216 -7.10747 28901 ft 430 kts 129°
2026-05-08 20:38 42.24864 -7.04059 28899 ft 431 kts 129°
2026-05-08 20:38 42.21500 -6.97357 28901 ft 431 kts 130°
2026-05-08 20:39 42.18702 -6.91793 28901 ft 431 kts 130°
2026-05-08 20:39 42.15332 -6.85110 28907 ft 432 kts 130°
2026-05-08 20:40 42.11943 -6.78403 28900 ft 433 kts 130°
2026-05-08 20:40 42.08545 -6.71689 28907 ft 433 kts 130°
2026-05-08 20:41 42.05144 -6.64988 28909 ft 433 kts 131°
2026-05-08 20:41 42.01740 -6.58297 28904 ft 433 kts 131°
2026-05-08 20:42 41.98333 -6.51612 28908 ft 433 kts 131°
2026-05-08 20:42 41.94918 -6.44925 28909 ft 434 kts 131°
2026-05-08 20:43 41.91497 -6.38244 28901 ft 434 kts 131°
2026-05-08 20:43 41.88077 -6.31574 28915 ft 434 kts 132°
2026-05-08 20:44 41.84645 -6.24898 28903 ft 434 kts 132°
2026-05-08 20:44 41.81214 -6.18237 28905 ft 434 kts 132°
2026-05-08 20:45 41.77779 -6.11588 28906 ft 433 kts 132°
2026-05-08 20:45 41.74349 -6.04960 28911 ft 433 kts 132°
2026-05-08 20:46 41.70914 -5.98335 28903 ft 433 kts 132°
2026-05-08 20:46 41.67481 -5.91725 28912 ft 433 kts 132°
2026-05-08 20:47 41.64031 -5.85099 28922 ft 433 kts 132°
2026-05-08 20:47 41.60574 -5.78473 28918 ft 434 kts 132°
2026-05-08 20:48 41.57136 -5.71896 28921 ft 435 kts 132°
2026-05-08 20:48 41.53662 -5.65265 28928 ft 436 kts 133°
2026-05-08 20:49 41.49629 -5.59442 28930 ft 424 kts 145°
2026-05-08 20:49 41.45211 -5.54232 28931 ft 424 kts 146°
2026-05-08 20:50 41.40790 -5.49002 28924 ft 426 kts 146°
2026-05-08 20:50 41.36394 -5.43700 28922 ft 427 kts 145°
2026-05-08 20:51 41.32007 -5.38364 28923 ft 427 kts 145°
2026-05-08 20:51 41.27623 -5.33031 28931 ft 427 kts 146°
2026-05-08 20:52 41.23230 -5.27700 28918 ft 428 kts 146°
2026-05-08 20:52 41.18831 -5.22372 28918 ft 428 kts 146°
2026-05-08 20:53 41.14428 -5.17051 28915 ft 428 kts 146°
2026-05-08 20:53 41.10012 -5.11725 28919 ft 429 kts 146°
2026-05-08 20:54 41.05592 -5.06404 28917 ft 429 kts 146°
2026-05-08 20:54 41.01192 -5.01111 28903 ft 421 kts 146°
2026-05-08 20:55 40.96896 -4.95947 28091 ft 416 kts 146°
2026-05-08 20:55 40.94757 -4.93388 27513 ft 414 kts 146°
2026-05-08 20:55 40.92632 -4.90846 27063 ft 410 kts 146°
2026-05-08 20:55 40.90527 -4.88329 26578 ft 406 kts 146°
2026-05-08 20:56 40.88440 -4.85836 26115 ft 403 kts 146°
2026-05-08 20:56 40.86371 -4.83367 25646 ft 399 kts 146°
2026-05-08 20:56 40.84313 -4.80913 25183 ft 396 kts 146°
2026-05-08 20:56 40.82278 -4.78488 24727 ft 392 kts 146°
2026-05-08 20:57 40.80260 -4.76086 24272 ft 389 kts 146°
2026-05-08 20:57 40.78258 -4.73705 23823 ft 386 kts 146°
2026-05-08 20:57 40.76277 -4.71351 23375 ft 382 kts 146°
2026-05-08 20:57 40.74310 -4.69015 22936 ft 379 kts 146°
2026-05-08 20:58 40.72355 -4.66698 22503 ft 376 kts 146°
2026-05-08 20:58 40.70417 -4.64400 22059 ft 373 kts 146°
2026-05-08 20:58 40.68493 -4.62123 21627 ft 370 kts 146°
2026-05-08 20:58 40.66579 -4.59856 21191 ft 367 kts 145°
2026-05-08 20:59 40.64713 -4.57649 20769 ft 365 kts 146°
2026-05-08 20:59 40.62830 -4.55424 20342 ft 362 kts 145°
2026-05-08 20:59 40.61031 -4.53109 20035 ft 360 kts 141°
2026-05-08 20:59 40.59328 -4.50678 19632 ft 362 kts 139°
2026-05-08 21:00 40.57649 -4.48211 19215 ft 362 kts 139°
2026-05-08 21:00 40.55975 -4.45747 18804 ft 362 kts 139°
2026-05-08 21:00 40.54292 -4.43289 18395 ft 362 kts 139°
2026-05-08 21:00 40.52609 -4.40847 17963 ft 359 kts 139°
2026-05-08 21:01 40.50934 -4.38430 17536 ft 356 kts 139°
2026-05-08 21:01 40.49265 -4.36030 17121 ft 353 kts 139°
2026-05-08 21:01 40.47614 -4.33662 16708 ft 351 kts 139°
2026-05-08 21:01 40.45968 -4.31305 16290 ft 349 kts 139°
2026-05-08 21:02 40.44332 -4.28965 15876 ft 346 kts 139°
2026-05-08 21:02 40.42708 -4.26644 15474 ft 344 kts 139°
2026-05-08 21:02 40.41094 -4.24340 15068 ft 341 kts 138°
2026-05-08 21:02 40.39493 -4.22056 14655 ft 339 kts 138°
2026-05-08 21:03 40.37904 -4.19790 14248 ft 336 kts 138°
2026-05-08 21:03 40.36324 -4.17539 13847 ft 333 kts 138°
2026-05-08 21:03 40.34777 -4.15290 13441 ft 332 kts 133°
2026-05-08 21:03 40.33709 -4.12584 13172 ft 336 kts 114°
2026-05-08 21:04 40.32990 -4.09683 12789 ft 334 kts 112°
2026-05-08 21:04 40.32290 -4.06801 12393 ft 332 kts 112°
2026-05-08 21:04 40.31589 -4.03923 12010 ft 330 kts 113°
2026-05-08 21:04 40.30886 -4.01067 11613 ft 329 kts 112°
2026-05-08 21:05 40.30182 -3.98236 11230 ft 326 kts 112°
2026-05-08 21:05 40.29478 -3.95419 10851 ft 324 kts 112°
2026-05-08 21:05 40.28775 -3.92619 10464 ft 321 kts 112°
2026-05-08 21:05 40.28090 -3.89891 10334 ft 311 kts 111°
2026-05-08 21:06 40.27422 -3.87240 10231 ft 300 kts 111°
2026-05-08 21:06 40.26780 -3.84694 10112 ft 291 kts 111°
2026-05-08 21:06 40.26155 -3.82215 9994 ft 282 kts 111°
2026-05-08 21:06 40.25543 -3.79800 9749 ft 278 kts 111°
2026-05-08 21:07 40.24935 -3.77400 9477 ft 276 kts 111°
2026-05-08 21:07 40.24332 -3.75028 9199 ft 274 kts 111°
2026-05-08 21:07 40.23734 -3.72679 8959 ft 270 kts 110°
2026-05-08 21:07 40.23144 -3.70358 8678 ft 268 kts 110°
2026-05-08 21:08 40.22556 -3.68049 8398 ft 266 kts 110°
2026-05-08 21:08 40.21969 -3.65746 8118 ft 265 kts 110°
2026-05-08 21:08 40.21389 -3.63472 7832 ft 263 kts 110°
2026-05-08 21:08 40.20811 -3.61204 7558 ft 262 kts 110°
2026-05-08 21:09 40.20237 -3.58952 7283 ft 261 kts 110°
2026-05-08 21:09 40.19663 -3.56705 6984 ft 260 kts 110°
2026-05-08 21:09 40.19089 -3.54460 6702 ft 259 kts 110°
2026-05-08 21:09 40.18518 -3.52230 6419 ft 258 kts 110°
2026-05-08 21:10 40.17950 -3.50017 6182 ft 255 kts 110°
2026-05-08 21:10 40.17495 -3.47817 6052 ft 249 kts 95°
2026-05-08 21:10 40.17804 -3.45625 5822 ft 250 kts 67°
2026-05-08 21:10 40.18815 -3.43761 5508 ft 254 kts 47°
2026-05-08 21:11 40.20115 -3.42172 5176 ft 256 kts 43°
2026-05-08 21:11 40.21548 -3.40768 4815 ft 260 kts 32°
2026-05-08 21:11 40.23127 -3.39630 4459 ft 262 kts 29°
2026-05-08 21:11 40.24779 -3.38576 4083 ft 266 kts 18°
2026-05-08 21:12 40.26583 -3.38402 4047 ft 255 kts 354°
2026-05-08 21:12 40.28296 -3.38767 4011 ft 242 kts 352°
2026-05-08 21:12 40.29897 -3.39078 3996 ft 224 kts 350°
2026-05-08 21:12 40.31222 -3.39928 3996 ft 206 kts 319°
2026-05-08 21:13 40.32268 -3.41108 3976 ft 193 kts 323°
2026-05-08 21:13 40.33327 -3.42204 4008 ft 198 kts 323°
2026-05-08 21:13 40.34439 -3.43332 4025 ft 205 kts 324°
2026-05-08 21:13 40.35592 -3.44465 4019 ft 208 kts 324°
2026-05-08 21:14 40.36739 -3.45623 3995 ft 210 kts 323°
2026-05-08 21:14 40.37903 -3.46811 3979 ft 210 kts 323°
2026-05-08 21:14 40.39048 -3.47980 3737 ft 207 kts 322°
2026-05-08 21:14 40.40154 -3.49110 3484 ft 194 kts 322°
2026-05-08 21:15 40.41187 -3.50166 3221 ft 183 kts 322°
2026-05-08 21:15 40.42159 -3.51157 3008 ft 170 kts 322°
2026-05-08 21:15 40.43033 -3.52048 2777 ft 155 kts 322°
2026-05-08 21:15 40.43881 -3.52912 2567 ft 155 kts 322°
2026-05-08 21:16 40.44719 -3.53765 2367 ft 152 kts 323°
2026-05-08 21:16 40.45557 -3.54614 2128 ft 152 kts 322°
2026-05-08 21:16 40.46392 -3.55464 1954 ft 150 kts 322°